METEOR 2-11 DEB, 42454

Orbit data source: Space-Track

METEOR 2-11 DEB, 42454 is space debris in LEO originally from a launch on Thu, 05 Jul 1984 UTC launched from the Plesetsk Missile And Space Complex (PKMTR). Debris objects in space refer to the collection of defunct objects orbiting the Earth. Examples of debris include non-operational satellites, rocket bodies, and fragments generated from explosions, collisions, or faulty payload assembly.

Loading next visibility...
Identifier
42454, 1984-072Q
Orbit
LEO
Country
Flag of CISCIS
Related business
Manufacturer
Unknown
Mission
Spacecraft
Bus & Motor
Unknown
Mass
Unknown
Launch date (UTC)
1984-07-05 (41 years ago)
Launch vehicle
Unknown
Launch site
Plesetsk Missile And Space Complex (PKMTR)
Object type
Payload
Rocket body
Debris
Shape & HBR
Unknown shape, 0.1 m
Radar Cross Section
Small (<0.1 m²)

Expand to show TLE details & history
Last TLE update: 2 days ago

TLE from 2 days ago
0 METEOR 2-11 DEB
1 42454U 84072Q   25300.42224761  .00003667  00000-0  25905-2 0  9993
2 42454  82.5133 192.7445 0015228 289.5868  70.3655 13.97592504530143
Epoch: 2025-10-27T10:08Z
TLE epoch observation values (Epoch: 2025-10-27T10:08:02.193Z)
Latitude
-0.00005°
Longitude
4.71104°
Altitude
901.353 km
Speed
7.403 km/s
True Right ascension
12h 50m 58s
True Declination
0° 00' 00"
Sunlit
Object was in daylight at epoch
Visualization orbit readout
Latitude
Unknown
Longitude
Unknown
Altitude
Unknown
Speed
Unknown
Apparent Right ascension
Unknown
Apparent Declination
Unknown
Sunlit
N/A
Visualization observer readout
Local Sidereal Time
19:19:16
Azimuth
Unknown
Elevation
Unknown
Doppler factor
Unknown
Orbital elements
Apogee altitude
910.361 km
Perigee altitude
888.196 km
Semi-major axis
7,277.415 km
Eccentricity
0.00152
Inclination
82.5133°
RAAN
192.7445°
Arg. of periapsis
289.5868°
True anomaly
70.52996°
Mean anomaly
70.3655°
Eccentric anomaly
70.44772°
Mean motion
3.49605 °/min
Orbital period
102.97 mins
BSTAR
0.0025905
Loading maneuver chart data...
Computing Atmospheric mass density...
Loading historical data...
Loading historical data...
Loading historical data...
Loading historical data...
Loading historical data...
Loading historical data...
Loading historical data...

Documentation

Showing up to 5 results
|